This demonstration page uses our WeatherBlox Daily Observations layout. Learn more.

Left ArrowRight Arrow

39.92423, -83.80882

Hourly Observations for January 24, 2022

Temp ( °F °C ) Dew Point ( °F °C ) Humidity (%) Winds ( mph kmh ) Pressure ( in mb ) Visibility ( mi km ) Precip ( " mm )
12:27 am 00:27 Partly Cloudy 16 -9 16 -9 100 100 Calm 30.03 1017 9 14 0.00 0.00
12:56 am 00:56 Clear 13 -10.6 13 -10.6 100 100 Calm 29.98 1015 9 14 0.00 0.00
1:28 am 01:28 Clear with Mist and Fog 10 -12 10 -12 100 100 Calm 30.03 1017 2 3 0.00 0.00
1:39 am 01:39 Clear with Mist and Fog 10 -12 10 -12 100 100 SW 3 6 30.02 1017 3 5 0.00 0.00
1:56 am 01:56 Clear 10 -12.2 10 -12.2 100 100 SSW 3 6 29.97 1015 9 14 0.00 0.00
2:56 am 02:56 Clear 12 -11.1 12 -11.1 100 100 SW 3 6 29.96 1014 10 16 0.00 0.00
3:56 am 03:56 Clear 13 -10.6 13 -10.6 100 100 SSE 3 6 29.95 1014 10 16 0.00 0.00
4:56 am 04:56 Clear 14 -10 14 -10 100 100 SSE 7 11 29.92 1013 10 16 0.00 0.00
5:56 am 05:56 Cloudy 16 -8.9 16 -8.9 100 100 SSE 7 11 29.88 1012 10 16 0.00 0.00
6:56 am 06:56 Mostly Cloudy 17 -8.3 17 -8.3 100 100 S 7 11 29.87 1012 10 16 0.00 0.00
7:56 am 07:56 Cloudy 19 -7.2 16 -8.9 88 88 S 7 11 29.84 1011 10 16 0.00 0.00
8:56 am 08:56 Cloudy with Light Snow 21 -6.1 16 -8.9 81 81 S 9 15 29.81 1010 10 16 0.00 0.00
9:33 am 09:33 Cloudy with Light Snow 21 -6 18 -8 86 86 S 9 15 29.84 1010 2 3 0.00 0.00
9:51 am 09:51 Cloudy with Light Snow 21 -6 19 -7 93 93 S 10 17 29.83 1010 1 2 0.00 0.00
9:52 am 09:52 Cloudy with Light Snow 22 -5.6 19 -7.2 89 89 S 10 17 29.80 1009 1 2 0.00 0.00
9:59 am 09:59 Cloudy with Light Snow 21 -6 19 -7 93 93 S 9 15 29.82 1010 1 1 0.00 0.00
10:10 am 10:10 Cloudy with Light Snow 21 -6 21 -6 100 100 S 10 17 29.82 1010 1 2 0.00 0.00
10:29 am 10:29 Cloudy with Light Snow 23 -5 21 -6 93 93 S 10 17 29.81 1009 1 2 0.00 0.00
10:36 am 10:36 Cloudy with Light Snow 23 -5 21 -6 93 93 S 9 15 29.81 1009 1 2 0.00 0.00
10:56 am 10:56 Cloudy with Light Snow 23 -5 21 -6.1 92 92 S 13 20 29.77 1008 1 2 0.00 0.00
11:05 am 11:05 Cloudy with Light Snow 23 -5 21 -6 93 93 S 13 20 29.79 1009 1 1 0.00 0.00
11:29 am 11:29 Cloudy with Light Snow 25 -4 23 -5 93 93 S 13 20 29.77 1008 1 2 0.00 0.00
11:56 am 11:56 Cloudy with Light Snow 25 -3.9 24 -4.4 96 96 S 12 19 29.74 1007 1 2 0.00 0.00
12:19 pm 12:19 Cloudy with Light Snow 27 -3 25 -4 93 93 S 14 22 29.73 1007 3 4 0.00 0.00
12:26 pm 12:26 Cloudy with Light Snow 27 -3 25 -4 93 93 SSW 12 19 29.74 1007 6 10 0.00 0.00
12:56 pm 12:56 Cloudy 28 -2.2 24 -4.4 85 85 SW 15 24 29.71 1006 10 16 0.00 0.00
1:56 pm 13:56 Mostly Cloudy 31 -0.6 23 -5 72 72 SW 17 28 29.68 1005 10 16 0.00 0.00
2:56 pm 14:56 Cloudy 33 0.6 24 -4.4 70 70 SW 12 19 29.67 1005 10 16 0.00 0.00
3:45 pm 15:45 Windy with Snow Likely 34 1 30 -1 87 87 SW 21 33 29.67 1005 3 4 0.00 0.00
3:56 pm 15:56 Cloudy with Light Snow 34 1.1 32 0 92 92 WSW 17 28 29.68 1005 3 5 0.00 0.00
4:13 pm 16:13 Cloudy with Light Snow 34 1 34 1 100 100 SW 12 19 29.70 1006 2 3 0.00 0.00
4:30 pm 16:30 Cloudy with Light Snow 34 1 34 1 100 100 WSW 13 20 29.71 1006 2 3 0.00 0.00
4:56 pm 16:56 Cloudy with Light Snow 34 1 N/A N/A WSW 10 17 29.71 1006 2 3 0.00 0.00
5:08 pm 17:08 Cloudy with Light Snow 34 1 N/A N/A WSW 10 17 29.71 1006 2 3 0.00 0.00
5:25 pm 17:25 Cloudy with Light Snow 34 1 N/A N/A WSW 10 17 29.72 1006 2 3 0.00 0.00
5:56 pm 17:56 Cloudy with Light Snow 34 1 N/A N/A WSW 10 17 29.72 1007 4 6 0.00 0.00
6:56 pm 18:56 Cloudy 34 1 N/A N/A WSW 12 19 29.75 1007 8 13 0.00 0.00
7:56 pm 19:56 Cloudy with Light Wintry Mix 34 1 N/A N/A WSW 13 20 29.77 1008 6 10 0.00 0.00
8:09 pm 20:09 Cloudy 34 1 N/A N/A W 12 19 29.78 1008 7 11 0.00 0.00
8:56 pm 20:56 Cloudy 34 1 N/A N/A WSW 10 17 29.79 1009 7 11 0.00 0.00
9:29 pm 21:29 Cloudy with Light Wintry Mix 34 1 N/A N/A WNW 16 26 29.82 1010 7 11 0.00 0.00
9:48 pm 21:48 Cloudy 34 1 34 1 100 100 NW 17 28 29.83 1010 7 11 0.00 0.00
9:56 pm 21:56 Cloudy with Mist and Fog 32 0 32 0 100 100 NW 16 26 29.83 1010 6 10 0.00 0.00
10:20 pm 22:20 Cloudy with Light Wintry Mix 30 -1 30 -1 100 100 WNW 15 24 29.86 1011 3 4 0.00 0.00
10:29 pm 22:29 Cloudy with Light Wintry Mix 30 -1 N/A N/A WNW 15 24 29.86 1011 3 4 0.00 0.00
10:49 pm 22:49 Cloudy with Light Wintry Mix 30 -1 N/A N/A WNW 14 22 29.88 1012 3 5 0.00 0.00
10:56 pm 22:56 Cloudy with Light Wintry Mix 30 -1 N/A N/A WNW 17 28 29.86 1011 4 6 0.00 0.00
11:07 pm 23:07 Cloudy with Light Snow 28 -2 N/A N/A NW 16 26 29.88 1012 3 4 0.00 0.00
11:28 pm 23:28 Cloudy with Light Wintry Mix 28 -2 N/A N/A NNW 12 19 29.89 1012 3 4 0.00 0.00
11:43 pm 23:43 Cloudy with Light Wintry Mix 28 -2 N/A N/A NW 12 19 29.90 1013 3 5 0.00 0.00
11:56 pm 23:56 Cloudy with Light Wintry Mix 28 -2.2 28 -2.2 100 100 NW 13 20 29.89 1012 5 8 0.00 0.00

Powered by AerisWeather